DW2047 Weather Reports


time (UTC)temp
C
wind
direction
speed
KPH
gust
KPH
rain 1hr
cm
rain 24hr
cm
rain mn
cm
humidity
%
barometer
mb
20260906232503 35 138 3.2 17.7 0.00 0.00 0.00 48 1010.4
20260906232048 35 143 4.8 17.7 0.00 0.00 0.00 48 1010.4
20260906231510 35 159 8.0 16.1 0.00 0.00 0.00 47 1010.4
20260906231052 35 151 6.4 14.5 0.00 0.00 0.00 47 1010.4
20260906230531 35 155 6.4 14.5 0.00 0.00 0.00 47 1010.4
20260906230106 35 156 6.4 14.5 0.00 0.00 0.00 46 1010.4
20260906225538 35 143 4.8 16.1 0.00 0.00 0.00 46 1010.5
20260906225017 35 201 6.4 16.1 0.00 0.00 0.00 47 1010.5
20260906224531 35 128 9.7 17.7 0.00 0.00 0.00 45 1010.5
20260906224011 35 149 8.0 17.7 0.00 0.00 0.00 42 1010.4
20260906223553 36 148 4.8 11.3 0.00 0.00 0.00 42 1010.4
20260906223015 36 92 4.8 11.3 0.00 0.00 0.00 43 1010.4
20260906222558 36 123 6.4 16.1 0.00 0.00 0.00 43 1010.5
20260906222036 36 150 4.8 17.7 0.00 0.00 0.00 42 1010.5
20260906221501 36 207 3.2 8.0 0.00 0.00 0.00 41 1010.6
20260906221044 36 140 1.6 8.0 0.00 0.00 0.00 43 1010.6
20260906220520 36 181 1.6 9.7 0.00 0.00 0.00 43 1010.8
20260906220052 35 139 1.6 16.1 0.00 0.00 0.00 44 1010.8
20260906215527 35 158 6.4 16.1 0.00 0.00 0.00 43 1010.8
20260906215003 36 220 3.2 12.9 0.00 0.00 0.00 43 1010.8
20260906214533 36 142 1.6 9.7 0.00 0.00 0.00 43 1010.7
20260906214008 36 143 3.2 12.9 0.00 0.00 0.00 42 1010.8
20260906213550 36 146 4.8 12.9 0.00 0.00 0.00 43 1010.9
20260906213014 35 65 3.2 12.9 0.00 0.00 0.00 45 1011.0
20260906212555 35 157 1.6 11.3 0.00 0.00 0.00 45 1011.1
20260906212033 35 157 0.0 8.0 0.00 0.00 0.00 46 1011.2
20260906211602 35 156 4.8 12.9 0.00 0.00 0.00 46 1011.2
20260906211038 35 132 3.2 12.9 0.00 0.00 0.00 45 1011.3
20260906210516 35 238 0.0 4.8 0.00 0.00 0.00 46 1011.4
20260906210052 34 238 0.0 6.4 0.00 0.00 0.00 47 1011.4
20260906205527 34 207 0.0 9.7 0.00 0.00 0.00 46 1011.5
20260906205001 34 169 3.2 9.7 0.00 0.00 0.00 46 1011.6
20260906204533 35 133 1.6 6.4 0.00 0.00 0.00 47 1011.6
20260906204007 34 134 0.0 4.8 0.00 0.00 0.00 48 1011.6
20260906203551 34 134 1.6 6.4 0.00 0.00 0.00 48 1011.7
20260906203017 34 134 0.0 4.8 0.00 0.00 0.00 47 1011.7
20260906202554 34 134 0.0 4.8 0.00 0.00 0.00 46 1011.7
20260906202032 34 134 0.0 6.4 0.00 0.00 0.00 47 1011.8
20260906201603 34 134 1.6 6.4 0.00 0.00 0.00 47 1011.9
20260906201036 34 134 0.0 6.4 0.00 0.00 0.00 48 1012.0
20260906200513 34 134 1.6 11.3 0.00 0.00 0.00 49 1012.0
20260906200045 34 134 4.8 11.3 0.00 0.00 0.00 47 1012.1
20260906195519 34 273 1.6 6.4 0.00 0.00 0.00 49 1012.0
20260906195100 34 273 1.6 6.4 0.00 0.00 0.00 50 1012.1
20260906194525 34 266 1.6 11.3 0.00 0.00 0.00 49 1012.3
20260906194003 35 140 1.6 11.3 0.00 0.00 0.00 48 1012.3
20260906193540 35 184 4.8 11.3 0.00 0.00 0.00 46 1012.3
20260906193005 35 119 3.2 6.4 0.00 0.00 0.00 50 1012.4
20260906192546 34 132 0.0 6.4 0.00 0.00 0.00 48 1012.5
20260906192022 35 129 3.2 8.0 0.00 0.00 0.00 46 1012.5
20260906191553 35 132 3.2 14.5 0.00 0.00 0.00 44 1012.5
20260906191029 35 169 4.8 14.5 0.00 0.00 0.00 44 1012.7
20260906190509 35 139 4.8 12.9 0.00 0.00 0.00 44 1012.7
20260906190036 35 252 1.6 6.4 0.00 0.00 0.00 45 1012.7
20260906185513 35 253 1.6 8.0 0.00 0.00 0.00 46 1012.8
20260906185054 34 136 1.6 12.9 0.00 0.00 0.00 48 1012.8
20260906184525 33 127 1.6 12.9 0.00 0.00 0.00 48 1012.9
20260906184102 33 142 4.8 12.9 0.00 0.00 0.00 47 1012.9
20260906183537 33 173 0.0 8.0 0.00 0.00 0.00 47 1012.9
20260906183004 33 141 4.8 14.5 0.00 0.00 0.00 48 1013.0
20260906182543 34 184 4.8 14.5 0.00 0.00 0.00 49 1013.0
20260906182020 34 145 3.2 11.3 0.00 0.00 0.00 50 1013.0
20260906181552 33 256 1.6 6.4 0.00 0.00 0.00 51 1013.1
20260906181027 33 211 1.6 11.3 0.00 0.00 0.00 51 1013.2
20260906180505 33 181 4.8 16.1 0.00 0.00 0.00 55 1013.3
20260906180038 33 144 3.2 16.1 0.00 0.00 0.00 57 1013.4
20260906175511 32 144 6.4 16.1 0.00 0.00 0.00 58 1013.5
20260906175052 32 90 1.6 16.1 0.00 0.00 0.00 60 1013.6
20260906174526 32 142 6.4 12.9 0.00 0.00 0.00 59 1013.7
20260906174100 32 155 3.2 14.5 0.00 0.00 0.00 61 1013.9
20260906173537 32 270 3.2 16.1 0.00 0.00 0.00 61 1013.9
20260906173002 32 164 1.6 11.3 0.00 0.00 0.00 62 1014.0
20260906172542 32 139 4.8 16.1 0.00 0.00 0.00 62 1014.0
20260906172019 32 157 8.0 16.1 0.00 0.00 0.00 64 1014.2
20260906171550 32 155 8.0 14.5 0.00 0.00 0.00 65 1014.3
20260906171027 31 130 4.8 12.9 0.00 0.00 0.00 64 1014.4
20260906170507 31 148 3.2 16.1 0.00 0.00 0.00 65 1014.5
20260906170036 31 140 8.0 16.1 0.00 0.00 0.00 64 1014.5
20260906165515 31 136 1.6 12.9 0.00 0.00 0.00 65 1014.5
20260906165055 31 149 4.8 12.9 0.00 0.00 0.00 66 1014.5
20260906164529 31 140 4.8 12.9 0.00 0.00 0.00 67 1014.6
20260906164103 30 147 3.2 8.0 0.00 0.00 0.00 68 1014.6
20260906163538 30 159 3.2 8.0 0.00 0.00 0.00 68 1014.7
20260906163004 30 208 0.0 4.8 0.00 0.00 0.00 69 1014.7
20260906162545 30 208 0.0 9.7 0.00 0.00 0.00 69 1014.7
20260906162021 30 208 1.6 9.7 0.00 0.00 0.00 70 1014.7
20260906161552 30 147 0.0 8.0 0.00 0.00 0.00 71 1014.7
20260906161028 29 147 3.2 8.0 0.00 0.00 0.00 69 1014.7
20260906160505 29 176 1.6 9.7 0.00 0.00 0.00 71 1014.6
20260906160036 29 150 1.6 12.9 0.00 0.00 0.00 71 1014.6
20260906155517 29 147 3.2 12.9 0.00 0.00 0.00 70 1014.6
20260906155054 30 155 4.8 12.9 0.00 0.00 0.00 70 1014.5
20260906154522 30 143 4.8 12.9 0.00 0.00 0.00 71 1014.4
20260906154101 30 146 3.2 11.3 0.00 0.00 0.00 70 1014.5
20260906153541 30 132 3.2 11.3 0.00 0.00 0.00 71 1014.4
20260906153008 30 140 3.2 11.3 0.00 0.00 0.00 71 1014.3
20260906152546 29 146 1.6 9.7 0.00 0.00 0.00 73 1014.2
20260906152024 29 150 1.6 9.7 0.00 0.00 0.00 74 1014.2
20260906151554 28 150 4.8 9.7 0.00 0.00 0.00 73 1014.1
20260906151030 28 150 1.6 8.0 0.00 0.00 0.00 74 1014.1
20260906150504 28 150 0.0 8.0 0.00 0.00 0.00 76 1014.0
20260906150035 28 150 0.0 8.0 0.00 0.00 0.00 75 1014.1
20260906145512 28 150 0.0 4.8 0.00 0.00 0.00 76 1014.0
20260906145054 28 150 0.0 3.2 0.00 0.00 0.00 77 1014.0
20260906144511 28 150 1.6 8.0 0.00 0.00 0.00 76 1014.0
20260906144052 28 150 1.6 8.0 0.00 0.00 0.00 76 1014.0
20260906143529 28 150 3.2 9.7 0.00 0.00 0.00 77 1013.9
20260906143100 27 151 0.0 9.7 0.00 0.00 0.00 78 1014.0
20260906142537 27 151 0.0 4.8 0.00 0.00 0.00 79 1014.0
20260906142016 27 151 0.0 4.8 0.00 0.00 0.00 79 1014.0
20260906141548 27 151 0.0 8.0 0.00 0.00 0.00 79 1014.0
20260906141025 27 151 1.6 8.0 0.00 0.00 0.00 80 1014.0
20260906140501 27 144 3.2 6.4 0.00 0.00 0.00 81 1013.9
20260906140028 27 144 1.6 6.4 0.00 0.00 0.00 82 1013.9
20260906135502 26 144 0.0 6.4 0.00 0.00 0.00 83 1013.8
20260906135042 26 144 0.0 3.2 0.00 0.00 0.00 83 1013.8
20260906134510 26 144 0.0 3.2 0.00 0.00 0.00 83 1013.8
20260906134050 26 144 0.0 3.2 0.00 0.00 0.00 83 1013.7
20260906133528 26 144 0.0 1.6 0.00 0.00 0.00 83 1013.7
20260906133059 26 144 0.0 0.0 0.00 0.00 0.00 84 1013.7
20260906132535 26 144 0.0 0.0 0.00 0.00 0.00 84 1013.6
20260906132012 26 144 0.0 0.0 0.00 0.00 0.00 85 1013.5
20260906131544 25 144 0.0 0.0 0.00 0.00 0.00 85 1013.4
20260906131020 25 144 0.0 0.0 0.00 0.00 0.00 86 1013.3
20260906130601 25 144 0.0 0.0 0.00 0.00 0.00 86 1013.2
20260906130029 25 144 0.0 0.0 0.00 0.00 0.00 87 1013.2
20260906125506 25 144 0.0 0.0 0.00 0.00 0.00 87 1013.2
20260906125046 25 144 0.0 0.0 0.00 0.00 0.00 88 1013.1
20260906124514 25 144 0.0 0.0 0.00 0.00 0.00 88 1013.0
20260906124056 25 144 0.0 0.0 0.00 0.00 0.00 88 1012.9
20260906123532 24 144 0.0 0.0 0.00 0.00 0.00 88 1012.9
20260906123105 24 144 0.0 0.0 0.00 0.00 0.00 88 1012.9
20260906122541 24 144 0.0 0.0 0.00 0.00 0.00 88 1012.7
20260906122019 24 144 0.0 0.0 0.00 0.00 0.00 88 1012.7
20260906121602 24 144 0.0 0.0 0.00 0.00 0.00 87 1012.6
20260906121026 24 144 0.0 0.0 0.00 0.00 0.00 87 1012.5
20260906120505 24 144 0.0 0.0 0.00 0.00 0.00 87 1012.3
20260906120035 24 144 0.0 0.0 0.00 0.00 0.00 87 1012.3
20260906115512 24 144 0.0 0.0 0.00 0.00 0.00 87 1012.2
20260906115053 24 144 0.0 0.0 0.00 0.00 0.00 86 1012.1
20260906114522 25 144 0.0 0.0 0.00 0.00 0.00 86 1012.0
20260906114102 25 144 0.0 0.0 0.00 0.00 0.00 86 1012.0
20260906113538 25 144 0.0 0.0 0.00 0.00 0.00 85 1012.0
20260906113006 25 144 0.0 0.0 0.00 0.00 0.00 85 1012.0
20260906112547 25 144 0.0 0.0 0.00 0.00 0.00 85 1012.0
20260906112024 25 144 0.0 0.0 0.00 0.00 0.00 84 1012.0
20260906111556 25 144 0.0 0.0 0.00 0.00 0.00 84 1012.0
20260906111033 25 144 0.0 0.0 0.00 0.00 0.00 83 1011.9
20260906110510 25 144 0.0 0.0 0.00 0.00 0.00 83 1011.8
20260906110042 25 144 0.0 0.0 0.00 0.00 0.00 83 1011.8
20260906105518 25 144 0.0 0.0 0.00 0.00 0.00 82 1011.8
20260906105059 26 144 0.0 0.0 0.00 0.00 0.00 82 1011.8
20260906104528 26 144 0.0 0.0 0.00 0.00 0.00 81 1011.8
20260906104005 26 144 0.0 0.0 0.00 0.00 0.00 81 1011.7
20260906103547 26 144 0.0 0.0 0.00 0.00 0.00 81 1011.7
20260906103035 26 144 0.0 0.0 0.00 0.00 0.00 81 1011.7
20260906102555 26 144 0.0 0.0 0.00 0.00 0.00 80 1011.7
20260906102032 26 144 0.0 0.0 0.00 0.00 0.00 80 1011.7
20260906101502 26 144 0.0 0.0 0.00 0.00 0.00 80 1011.5
20260906101042 26 144 0.0 0.0 0.00 0.00 0.00 79 1011.5
20260906100519 26 144 0.0 0.0 0.00 0.00 0.00 79 1011.5
20260906100052 26 144 0.0 0.0 0.00 0.00 0.00 78 1011.5
20260906095529 26 144 0.0 0.0 0.00 0.00 0.00 78 1011.6
20260906095006 26 144 0.0 0.0 0.00 0.00 0.00 78 1011.6
20260906094539 27 144 0.0 0.0 0.00 0.00 0.00 78 1011.6
20260906094015 27 144 0.0 0.0 0.00 0.00 0.00 77 1011.5
20260906093558 27 144 0.0 0.0 0.00 0.00 0.00 77 1011.4
20260906093025 27 144 0.0 0.0 0.00 0.00 0.00 77 1011.4
20260906092502 27 144 0.0 0.0 0.00 0.00 0.00 76 1011.4
20260906092043 27 144 0.0 3.2 0.00 0.00 0.00 77 1011.5
20260906091511 27 144 0.0 4.8 0.00 0.00 0.00 77 1011.4
20260906091053 27 144 0.0 4.8 0.00 0.00 0.00 76 1011.4
20260906090530 27 144 1.6 11.3 0.00 0.00 0.00 76 1011.4
20260906090103 27 144 3.2 11.3 0.00 0.00 0.00 76 1011.4
20260906085540 27 144 1.6 4.8 0.00 0.00 0.00 76 1011.5
20260906085015 27 144 1.6 4.8 0.00 0.00 0.00 76 1011.5
20260906084549 27 144 1.6 4.8 0.00 0.00 0.00 76 1011.4
20260906084026 27 144 1.6 6.4 0.00 0.00 0.00 76 1011.5
20260906083503 27 144 1.6 4.8 0.00 0.00 0.00 75 1011.4
20260906083036 27 144 1.6 6.4 0.00 0.00 0.00 75 1011.5
20260906082516 27 144 1.6 6.4 0.00 0.00 0.00 75 1011.5
20260906082054 27 144 0.0 4.8 0.00 0.00 0.00 75 1011.4
20260906081525 28 144 0.0 8.0 0.00 0.00 0.00 75 1011.5
20260906081107 28 144 3.2 8.0 0.00 0.00 0.00 75 1011.5
20260906080541 28 144 3.2 8.0 0.00 0.00 0.00 75 1011.6
20260906080010 28 144 3.2 8.0 0.00 0.00 0.00 75 1011.6
20260906075552 28 146 3.2 8.0 0.00 0.00 0.00 75 1011.6
20260906075027 28 163 1.6 9.7 0.00 0.00 0.00 75 1011.7
20260906074601 28 148 1.6 9.7 0.00 0.00 0.00 75 1011.8
20260906074037 28 152 0.0 4.8 0.00 0.00 0.00 75 1011.8
20260906073518 28 152 1.6 8.0 0.00 0.00 0.00 75 1011.9
20260906073048 28 152 1.6 8.0 0.00 0.00 0.00 76 1011.9
20260906072526 28 152 1.6 8.0 0.00 0.00 0.00 76 1012.0
20260906072105 28 152 0.0 4.8 0.00 0.00 0.00 76 1012.1
20260906071532 27 152 0.0 8.0 0.00 0.00 0.00 76 1012.1
20260906071009 27 152 0.0 4.8 0.00 0.00 0.00 76 1012.1
20260906070552 27 152 0.0 9.7 0.00 0.00 0.00 76 1012.2
20260906070020 27 153 1.6 8.0 0.00 0.00 0.00 76 1012.3
20260906065601 27 153 0.0 4.8 0.00 0.00 0.00 76 1012.3
20260906065038 27 153 0.0 4.8 0.00 0.00 0.00 76 1012.3
20260906064507 27 153 0.0 1.6 0.00 0.00 0.00 76 1012.4
20260906064045 27 153 0.0 1.6 0.00 0.00 0.00 76 1012.4
20260906063522 27 153 0.0 0.0 0.00 0.00 0.00 76 1012.5
20260906063057 27 153 0.0 8.0 0.00 0.00 0.00 76 1012.5
20260906062533 27 153 1.6 8.0 0.00 0.00 0.00 76 1012.5
20260906062012 27 153 0.0 3.2 0.00 0.00 0.00 76 1012.4
20260906061547 27 153 0.0 8.0 0.00 0.00 0.00 76 1012.4
20260906061022 27 153 0.0 8.0 0.00 0.00 0.00 76 1012.4
20260906060604 27 153 1.6 4.8 0.00 0.00 0.00 76 1012.4
20260906060034 27 153 1.6 4.8 0.00 0.00 0.00 76 1012.4
20260906055513 27 153 1.6 4.8 0.00 0.00 0.00 75 1012.6
20260906055052 28 153 1.6 4.8 0.00 0.00 0.00 75 1012.7
20260906054533 28 153 0.0 4.8 0.00 0.00 0.00 75 1012.7
20260906054104 28 153 0.0 8.0 0.00 0.00 0.00 75 1012.5
20260906053542 28 153 3.2 8.0 0.00 0.00 0.00 75 1012.5
20260906053012 28 153 1.6 8.0 0.00 0.00 0.00 74 1012.5
20260906052556 28 153 0.0 8.0 0.00 0.00 0.00 74 1012.5
20260906052030 28 153 3.2 6.4 0.00 0.00 0.00 74 1012.6
20260906051609 28 153 1.6 8.0 0.00 0.00 0.00 74 1012.6
20260906051041 28 153 3.2 9.7 0.00 0.00 0.00 74 1012.7
20260906050521 28 153 4.8 9.7 0.00 0.00 0.00 74 1012.7
20260906050052 28 144 3.2 8.0 0.00 0.00 0.00 74 1012.7
20260906045531 28 178 1.6 9.7 0.00 0.00 0.00 73 1012.9
20260906045005 28 178 3.2 9.7 0.00 0.00 0.00 73 1013.0
20260906044543 28 148 3.2 9.7 0.00 0.00 0.00 72 1012.9
20260906044017 28 155 3.2 9.7 0.00 0.00 0.00 72 1012.8
20260906043602 28 148 1.6 9.7 0.00 0.00 0.00 72 1012.7
20260906043029 28 142 3.2 8.0 0.00 0.00 0.00 72 1012.7
20260906042508 28 143 4.8 6.4 0.00 0.00 0.00 71 1012.6
20260906042047 28 143 1.6 6.4 0.00 0.00 0.00 70 1012.6
20260906041517 28 143 1.6 6.4 0.00 0.00 0.00 70 1012.6
20260906041058 28 143 1.6 6.4 0.00 0.00 0.00 69 1012.6
20260906040535 28 143 1.6 6.4 0.00 0.00 0.00 69 1012.5
20260906040006 28 143 3.2 8.0 0.00 0.00 0.00 68 1012.5
20260906035546 28 143 1.6 16.1 0.00 0.00 0.00 68 1012.5
20260906035024 29 129 6.4 16.1 0.00 0.00 0.00 68 1012.5
20260906034605 29 139 1.6 12.9 0.00 0.00 0.00 67 1012.5
20260906034034 29 140 3.2 12.9 0.00 0.00 0.00 67 1012.5
20260906033511 29 119 4.8 11.3 0.00 0.00 0.00 66 1012.5
20260906033048 29 118 1.6 11.3 0.00 0.00 0.00 66 1012.5
20260906032526 29 112 1.6 11.3 0.00 0.00 0.00 66 1012.6
20260906032105 29 133 3.2 8.0 0.00 0.00 0.00 65 1012.5
20260906031535 30 93 1.6 8.0 0.00 0.00 0.00 65 1012.6
20260906031015 30 134 3.2 11.3 0.00 0.00 0.00 65 1012.5
20260906030555 30 138 3.2 11.3 0.00 0.00 0.00 63 1012.4
20260906030028 30 126 4.8 12.9 0.00 0.00 0.00 63 1012.3
20260906025506 30 144 3.2 11.3 0.00 0.00 0.00 62 1012.1
20260906025049 30 71 3.2 8.0 0.00 0.00 0.00 61 1012.0
20260906024520 30 100 3.2 11.3 0.00 0.00 0.00 60 1012.0
20260906024104 30 110 3.2 11.3 0.00 0.00 0.00 60 1011.9
20260906023542 30 90 3.2 11.3 0.00 0.00 0.00 59 1011.8
20260906023015 30 105 1.6 11.3 0.00 0.00 0.00 58 1011.7
20260906022556 30 80 1.6 11.3 0.00 0.00 0.00 57 1011.5
20260906022037 31 124 3.2 14.5 0.00 0.00 0.00 57 1011.3
20260906021512 31 88 3.2 14.5 0.00 0.00 0.00 57 1011.3
20260906021049 31 86 0.0 9.7 0.00 0.00 0.00 56 1011.3
20260906020528 31 77 1.6 11.3 0.00 0.00 0.00 56 1011.1
20260906020103 31 92 0.0 14.5 0.00 0.00 0.00 56 1011.0
20260906015541 31 118 3.2 14.5 0.00 0.00 0.00 55 1010.9
20260906015021 31 136 4.8 14.5 0.00 0.00 0.00 55 1010.7
20260906014605 31 119 3.2 12.9 0.00 0.00 0.00 55 1010.7
20260906014034 31 134 4.8 14.5 0.00 0.00 0.00 55 1010.7
20260906013513 32 126 3.2 14.5 0.00 0.00 0.00 54 1010.7
20260906013053 32 99 4.8 16.1 0.00 0.00 0.00 54 1010.6
20260906012528 32 78 4.8 16.1 0.00 0.00 0.00 53 1010.6
20260906012006 32 130 4.8 16.1 0.00 0.00 0.00 53 1010.5
20260906011543 32 123 4.8 14.5 0.00 0.00 0.00 53 1010.4
20260906011020 32 94 4.8 12.9 0.00 0.00 0.00 53 1010.4
20260906010603 33 130 4.8 14.5 0.00 0.00 0.00 52 1010.4
20260906010037 33 137 4.8 14.5 0.00 0.00 0.00 52 1010.4
20260906005515 33 61 6.4 14.5 0.00 0.00 0.00 51 1010.4
20260906005102 33 140 3.2 14.5 0.00 0.00 0.00 51 1010.5
20260906004530 33 107 3.2 9.7 0.00 0.00 0.00 50 1010.4
20260906004009 33 95 3.2 16.1 0.00 0.00 0.00 50 1010.4
20260906003551 34 70 6.4 17.7 0.00 0.00 0.00 50 1010.4
20260906003024 34 87 3.2 14.5 0.00 0.00 0.00 49 1010.4
20260906002502 34 121 6.4 14.5 0.00 0.00 0.00 48 1010.3
20260906002043 35 121 6.4 14.5 0.00 0.00 0.00 47 1010.3
20260906001515 35 90 6.4 14.5 0.00 0.00 0.00 46 1010.3
20260906001056 35 109 6.4 14.5 0.00 0.00 0.00 46 1010.2
20260906000532 35 71 1.6 14.5 0.00 0.00 0.00 47 1010.2
20260906000004 35 96 4.8 16.1 0.00 0.00 0.00 46 1010.2
20260905235544 35 71 3.2 20.9 0.00 0.00 0.00 46 1010.2
20260905235021 36 57 8.0 20.9 0.00 0.00 0.00 45 1010.1
20260905234557 36 88 6.4 19.3 0.00 0.00 0.00 45 1010.0
20260905234034 36 74 4.8 17.7 0.00 0.00 0.00 42 1010.0
20260905233510 36 125 6.4 14.5 0.00 0.00 0.00 39 1009.9
20260905233048 36 105 1.6 12.9 0.00 0.00 0.00 40 1009.9